Simultaneous Nadir Overpasses (SNOs) Predictions

Prediction of SNOs between FY3D and AQUA Satellite Orbit:

Table of predicted SNOs for the next 14.0 days since TLE Epoch: 6/20/2020
Index Date (FY3D) Time (FY3D) Lat,Lon (FY3D) SZA (FY3D ) Date (AQUA) Time (AQUA) Lat,Lon (AQUA) SZA (AQUA ) Distance(km) Time Diff (sec)
1 06/21/2020 03:01:05 61.99, -5.91 89.21 06/21/2020 03:02:02 61.98, -5.94 89.16 1.69 57
2 06/21/2020 03:50:23 -66.88, 166.06 95.83 06/21/2020 03:50:05 -66.88, 166.04 95.80 0.72 18
3 06/23/2020 19:17:39 61.39, 109.53 89.88 06/23/2020 19:18:41 61.39, 109.50 89.83 1.74 62
4 06/23/2020 20:06:53 -66.53, -78.43 95.39 06/23/2020 20:06:40 -66.52, -78.45 95.37 0.80 13
5 06/26/2020 11:34:12 60.85,-134.96 90.54 06/26/2020 11:35:19 60.84,-135.00 90.48 2.07 67
6 06/26/2020 12:23:22 -66.22, 37.15 94.97 06/26/2020 12:23:14 -66.22, 37.12 94.95 1.18 8
7 06/26/2020 13:05:50 78.90, -45.10 57.09 06/26/2020 13:04:37 79.46, -42.67 57.36 80.17 73
8 06/29/2020 03:51:08 59.01, -20.35 92.56 06/29/2020 03:52:19 59.02, -20.33 92.47 1.52 71
9 06/29/2020 04:39:50 -65.97, 152.79 94.55 06/29/2020 04:39:47 -65.97, 152.75 94.53 1.86 3
10 06/29/2020 05:26:01 79.15, -5.81 70.05 06/29/2020 05:24:48 79.42, -7.09 70.24 39.79 73
11 07/01/2020 20:09:29 52.26, 91.70 99.51 07/01/2020 20:10:42 52.24, 91.92 99.36 15.20 73
12 07/01/2020 20:56:37 -64.62, -92.66 92.96 07/01/2020 20:56:38 -64.63, -92.62 92.97 1.80 1




NCC Satellite Simultaneous Nadir Overpasses (SNOs) Prediction Service
